Regional Weather Roundup
Issued by NWS Upton, NY

Current Version | Previous Version | Text Only | Print | Product List | Glossary On
Versions: 1 2 3 4 5 6 7 8 9 10 11 12 13 14 15 16 17 18 19 20 21 22 23 24 25 26 27 28 29 30 31 32 33 34 35 36 37 38 39 40 41 42 43 44 45 46 47 48 49 50
000 ASUS41 KOKX 280404 RWROKX REGIONAL WEATHER ROUNDUP NATIONAL WEATHER SERVICE NEW YORK NY 1200 AM EDT FRI AUG 28 2015 NOTE: "FAIR" INDICATES FEW OR NO CLOUDS BELOW 12,000 FEET WITH NO SIGNIFICANT WEATHER AND/OR OBSTRUCTIONS TO VISIBILITY. NYZ071-072-176-178-NJZ106-104-280500- NEW YORK CITY METRO AREA CITY SKY/WX TMP DP RH WIND PRES REMARKS CENTRAL PARK CLEAR 70 52 52 CALM 30.15R LAGUARDIA APRT CLEAR 71 53 52 N7 30.12R KENNEDY INTL PTCLDY 71 52 50 NW9 30.13R NEWARK/LIBERTY PTCLDY 69 54 58 W6 30.12R BRNX BOT. GARD N/A 68 54 60 W6 30.12S TETERBORO CLEAR 67 52 58 NW5 30.12R $$ NYZ177-179-078>081-280500- LONG ISLAND NEW YORK CITY SKY/WX TMP DP RH WIND PRES REMARKS FARMINGDALE CLEAR 68 54 60 CALM 30.12R ISLIP PTCLDY 67 56 67 N5 30.10R SHIRLEY CLEAR 65 56 72 NW5 30.11R WESTHAMPTON CLEAR 59 53 80 N6 30.12R MONTAUK POINT N/A 72 59 63 NW8 30.11R $$ NYZ052-065-067-280500- HUDSON VALLEY CITY SKY/WX TMP DP RH WIND PRES REMARKS WHITE PLAINS CLEAR 62 54 74 NW7 30.12R NEWBURGH NOT AVBL MONTGOMERY CLEAR 58 55 90 CALM 30.14R POUGHKEEPSIE CLEAR 60 56 86 CALM 30.13R ALBANY PTCLDY 62 53 72 W9 30.13R $$ NJZ001-105-106-008-010-013-015-019>022-104-280500- NEW JERSEY CITY SKY/WX TMP DP RH WIND PRES REMARKS NEWARK/LIBERTY PTCLDY 69 54 58 W6 30.12R TETERBORO CLEAR 67 52 58 NW5 30.12R CALDWELL CLEAR 61 54 77 CALM 30.14R MORRISTOWN CLEAR 55 50 82 CALM 30.14R SOMERVILLE CLEAR 57 54 89 CALM 30.12R SUSSEX CLEAR 54 52 93 CALM 30.15R ANDOVER N/A 55 54 96 CALM 30.16R TRENTON CLEAR 63 56 78 W5 30.14R MILLVILLE CLEAR 60 56 86 CALM 30.14S ATLANTIC CITY CLOUDY 65 57 75 CALM 30.14R WRIGHTSTOWN CLEAR 61 56 84 CALM 30.12R TOMS RIVER CLEAR 57 54 88 CALM 30.14S BELMAR CLEAR 63 52 67 CALM 30.14R $$ PAZ047>061-062-071-280500- EASTERN PENNSYLVANIA CITY SKY/WX TMP DP RH WIND PRES REMARKS PHILADELPHIA PTCLDY 70 54 56 N3 30.15R ALLENTOWN CLEAR 61 54 77 CALM 30.15R SCRANTON CLEAR 59 54 83 SE3 30.16S $$ CTZ002-004>006-009-010-012-RIZ004-006-007-MAZ004-011-015-280500- SOUTHERN NEW ENGLAND IN CT CITY SKY/WX TMP DP RH WIND PRES REMARKS BRADLEY INTL PTCLDY 61 55 81 W5 30.10R HARTFORD CLEAR 64 55 72 NE5 30.11R DANBURY CLEAR 58 53 84 SW3 30.15R WTRBRY/OXFORD CLEAR 61 52 72 NW5 30.14S BRIDGEPORT CLEAR 67 56 67 N5 30.11R MERIDEN CLEAR 59 55 87 CALM 30.12R NEW HAVEN CLEAR 67 56 67 NW5 30.12R CHESTER NOT AVBL GROTON CLEAR 63 58 83 N3 30.09R WILLIMANTIC CLEAR 60 56 86 CALM 30.11R IN RI CITY SKY/WX TMP DP RH WIND PRES REMARKS PROVIDENCE PTCLDY 66 56 70 W6 30.09R BLOCK ISLAND CLEAR 68 59 73 NW6 30.09R WESTERLY CLEAR 65 56 72 NW5 30.09R IN MA CITY SKY/WX TMP DP RH WIND PRES REMARKS BOSTON PTCLDY 69 55 60 W6 30.07R WORCESTER CLEAR 60 54 80 NW10 30.11R WESTFIELD CLEAR 62 55 77 N5 30.11R PROVINCETOWN CLEAR 70 57 64 NW8 30.07R NANTUCKET MOCLDY 68 62 81 W7 30.06R $$ ANZ330-335-338-340-345-350-353-355-280500- COASTAL MARINE OBSERVATIONS STATION/POSITION TIME SKY/WX TEMP WIND PRES VSBY WAVE AIR SEA DIR/SP/G HT/PER (UTC) (F) (DEG/KT/KT) (MB) (MI) (FT/S) NY HARB ENTRANCE 0250 74 76 330/ 10/ 12 1019.2 2/10 4S FIRE IS NOT AVBL 20S FIRE ISLAND 0250 74 75 330/ 12/ 14 1019.1 3/10 GREAT SOUTH BAY 0315 68 79 CALM / 2 N/A 23SW MTP 0350 73 73 330/ 10/ 14 1018.7 3/10 HUDSON CANYON NOT AVBL KINGS POINT 0300 71 74 360/ 6/ 9 1018.9 EXECUTION ROCKS 0300 71 300/ 10/ 12 N/A CENTRAL LI SOUND NOT AVBL EASTERN LI SOUND 0300 69 71 330/ 6/ 8 N/A ROBBINS REEF 0300 71 350/ 8/ 10 1018.6 $$ >>>>>>>>>>>>>>>>>>>>>>>>>>>> KEY <<<<<<<<<<<<<<<<<<<<<<<<<<< > < > SKY/WX - SKY CONDITION/PRESENT WEATHER < > TMP - TEMPERATURE IN FAHRENHEIT < > DP - DEWPOINT IN FAHRENHEIT < > RH - RELATIVE HUMIDITY IN PERCENT < > WIND - DIRECTION AND SPEED IN MPH < > PRES - MEAN SEA LEVEL PRESSURE IN INCHES OF HG < > WCI - WIND CHILL INDEX < > VSB - VISIBILITY IN MILES < > HX - HEAT INDEX < > TC - TEMPERATURE IN CELSIUS < > VRB - VARIABLE WIND DIRECTION < > < >>>>>>>>>>>>>>>>>>>>>>>>>>>> KEY <<<<<<<<<<<<<<<<<<<<<<<<<<<

USA.gov is the U.S. government's official web portal to all federal, state and local government web resources and services.